Location: Canazei
(46.4667°N, 11.7667°E)
Time: 04:36:46
(UTC+00:00)

X-37B - Pass Details

Date: 21 April 2021
Orbit: 386 x 389 km, 45.0° (Epoch: 08 May)

Event Time Altitude Azimuth Distance (km) Brightness Sun altitude
Exits shadow 02:01:06 35° 120° (ESE) 642 1.7 -20.4°
Drops below altitude 10° 02:03:20 10° 90° (E) 1,415 4.0 -20.1°
Sets 02:05:27 0° 84° (E) 2,270 5.3 -19.9°
